User: anonymous   Login
Location: Artiguedieu
(43.5000°N, 0.5454°E)
Time: 08:51:29
(UTC+00:00)
Language:

Vanguard 2 Rocket - Orbit

View from above orbital plane
View from above orbital plane
View from above satellite
View from above satellite

Ground track
Ground track

The orbit data is extracted from the following two-line orbital elements,

1 00012U 59001B   21211.83986062 -.00000083  00000-0 -42544-4 0  9993
2 00012  32.9015   1.9769 1665215  63.1622 312.9411 11.44384458326760
Epoch (UTC): 30 July 2021 20:09:23
Eccentricity: 0.1665215
inclination: 32.9015°
perigee height: 555 km
apogee height: 3325 km
right ascension of ascending node: 1.9769°
argument of perigee: 63.1622°
revolutions per day: 11.44384458
mean anomaly at epoch: 312.9411°
orbit number at epoch: 32676

The dashed part of the orbit path shows where the satellite is in the earth's shadow,  

DLR